DW0427 Weather Reports


Display with metric or nautical units.
time (UTC)temp
F
wind
direction
speed
MPH
gust
MPH
rain 1hr
in
rain 24hr
in
rain mn
in
humidity
%
barometer
mb
20260510120608 55 45 10.0 19.0 0.00 0.00 0.00 51 1021.5
20260510120409 55 45 10.0 20.0 0.00 0.00 0.00 52 1021.5
20260510120208 54 46 10.0 20.0 0.00 0.00 0.00 53 1021.3
20260510120008 54 45 10.0 20.0 0.00 0.00 0.00 56 1021.5
20260510115808 55 45 10.0 20.0 0.00 0.00 0.00 50 1021.6
20260510115608 54 45 10.0 20.0 0.00 0.00 0.00 52 1021.6
20260510115208 53 46 10.0 16.0 0.00 0.00 0.00 54 1021.5
20260510115007 53 45 9.0 16.0 0.00 0.00 0.00 49 1021.5
20260510114808 53 46 9.0 16.0 0.00 0.00 0.00 51 1021.6
20260510114608 53 46 9.0 16.0 0.00 0.00 0.00 50 1021.5
20260510114408 53 45 9.0 16.0 0.00 0.00 0.00 49 1021.7
20260510114208 54 45 9.0 14.0 0.00 0.00 0.00 51 1021.8
20260510114008 53 45 9.0 17.0 0.00 0.00 0.00 53 1021.7
20260510113808 53 45 8.0 17.0 0.00 0.00 0.00 54 1021.7
20260510113608 53 45 8.0 17.0 0.00 0.00 0.00 51 1021.8
20260510113408 54 45 8.0 17.0 0.00 0.00 0.00 51 1021.8
20260510113208 55 45 8.0 17.0 0.00 0.00 0.00 49 1021.8
20260510113008 55 45 9.0 12.0 0.00 0.00 0.00 54 1021.7
20260510112808 55 45 9.0 13.0 0.00 0.00 0.00 58 1021.8
20260510112408 53 45 9.0 15.0 0.00 0.00 0.00 54 1021.9
20260510112208 53 45 9.0 15.0 0.00 0.00 0.00 54 1021.9
20260510112008 54 45 8.0 15.0 0.00 0.00 0.00 53 1021.9
20260510111808 54 45 8.0 15.0 0.00 0.00 0.00 55 1021.9
20260510111608 54 45 9.0 15.0 0.00 0.00 0.00 60 1022.0
20260510111408 53 45 9.0 14.0 0.00 0.00 0.00 59 1022.0
20260510111208 52 46 9.0 14.0 0.00 0.00 0.00 58 1022.1
20260510111008 52 45 10.0 14.0 0.00 0.00 0.00 58 1022.2
20260510110808 51 46 10.0 20.0 0.00 0.00 0.00 56 1022.3
20260510110608 51 45 10.0 20.0 0.00 0.00 0.00 55 1022.2
20260510110408 51 46 10.0 20.0 0.00 0.00 0.00 58 1022.2
20260510110208 51 46 9.0 20.0 0.00 0.00 0.00 58 1022.1
20260510110008 51 46 9.0 20.0 0.00 0.00 0.00 57 1022.2
20260510105808 51 45 9.0 18.0 0.00 0.00 0.00 57 1022.1
20260510105608 51 45 9.0 16.0 0.00 0.00 0.00 57 1022.1
20260510105408 51 45 9.0 16.0 0.00 0.00 0.00 56 1022.1
20260510105208 52 45 9.0 16.0 0.00 0.00 0.00 56 1022.2
20260510105008 52 45 9.0 15.0 0.00 0.00 0.00 57 1022.2
20260510104808 52 45 9.0 15.0 0.00 0.00 0.00 62 1022.2
20260510104608 51 46 9.0 15.0 0.00 0.00 0.00 60 1022.1
20260510104408 51 45 9.0 15.0 0.00 0.00 0.00 60 1022.1
20260510104208 51 45 10.0 15.0 0.00 0.00 0.00 58 1022.1
20260510103808 51 45 10.0 19.0 0.00 0.00 0.00 60 1022.3
20260510103608 51 45 10.0 19.0 0.00 0.00 0.00 60 1022.2
20260510103408 52 45 10.0 19.0 0.00 0.00 0.00 59 1022.2
20260510103208 52 45 10.0 19.0 0.00 0.00 0.00 58 1022.3
20260510103008 53 46 10.0 16.0 0.00 0.00 0.00 57 1022.3
20260510102808 53 46 11.0 16.0 0.00 0.00 0.00 58 1022.3
20260510102608 53 46 11.0 16.0 0.00 0.00 0.00 59 1022.2
20260510102408 53 45 11.0 16.0 0.00 0.00 0.00 58 1022.1
20260510102208 53 46 10.0 16.0 0.00 0.00 0.00 59 1022.3
20260510102008 53 46 10.0 16.0 0.00 0.00 0.00 57 1022.2
20260510101608 53 46 10.0 16.0 0.00 0.00 0.00 60 1022.3
20260510101407 53 45 10.0 16.0 0.00 0.00 0.00 59 1022.3
20260510101208 52 46 10.0 16.0 0.00 0.00 0.00 62 1022.3
20260510101008 51 45 10.0 16.0 0.00 0.00 0.00 62 1022.4
20260510100808 51 45 10.0 16.0 0.00 0.00 0.00 61 1022.4
20260510100608 51 46 10.0 16.0 0.00 0.00 0.00 59 1022.6
20260510100408 52 46 10.0 16.0 0.00 0.00 0.00 60 1022.6
20260510100208 52 46 10.0 16.0 0.00 0.00 0.00 59 1022.6
20260510100008 52 46 10.0 16.0 0.00 0.00 0.00 61 1022.6
20260510095608 52 46 11.0 16.0 0.00 0.00 0.00 63 1022.6
20260510095408 51 45 11.0 16.0 0.00 0.00 0.00 63 1022.6
20260510095208 51 46 11.0 17.0 0.00 0.00 0.00 64 1022.6
20260510095008 50 45 11.0 17.0 0.00 0.00 0.00 61 1022.6
20260510094608 51 45 11.0 17.0 0.00 0.00 0.00 60 1022.6
20260510094408 51 45 11.0 18.0 0.00 0.00 0.00 62 1022.6
20260510094208 51 45 11.0 18.0 0.00 0.00 0.00 62 1022.7
20260510094008 51 45 11.0 18.0 0.00 0.00 0.00 63 1022.7
20260510093808 51 46 11.0 18.0 0.00 0.00 0.00 62 1022.8
20260510093608 51 45 11.0 18.0 0.00 0.00 0.00 62 1022.8
20260510093408 51 45 11.0 17.0 0.00 0.00 0.00 62 1022.8
20260510093208 50 45 11.0 17.0 0.00 0.00 0.00 63 1022.8
20260510093008 50 45 11.0 18.0 0.00 0.00 0.00 62 1022.8
20260510092808 51 45 10.0 18.0 0.00 0.00 0.00 62 1022.8
20260510092608 51 45 10.0 18.0 0.00 0.00 0.00 61 1022.8
20260510092407 51 45 10.0 18.0 0.00 0.00 0.00 63 1022.9
20260510092208 51 45 10.0 18.0 0.00 0.00 0.00 61 1023.0
20260510092007 51 45 10.0 15.0 0.00 0.00 0.00 65 1022.8
20260510091808 51 45 10.0 15.0 0.00 0.00 0.00 64 1022.8
20260510091608 51 45 10.0 19.0 0.00 0.00 0.00 65 1022.8
20260510091208 51 45 9.0 19.0 0.00 0.00 0.00 63 1022.9
20260510091009 51 45 9.0 19.0 0.00 0.00 0.00 62 1022.9
20260510090808 51 45 8.0 19.0 0.00 0.00 0.00 60 1023.0
20260510090608 52 45 8.0 15.0 0.00 0.00 0.00 62 1023.0
20260510090407 52 45 9.0 15.0 0.00 0.00 0.00 63 1022.9
20260510090208 52 45 9.0 15.0 0.00 0.00 0.00 66 1022.9
20260510090010 52 45 10.0 15.0 0.00 0.00 0.00 66 1023.0
20260510085808 51 45 10.0 15.0 0.00 0.00 0.00 66 1023.1
20260510085608 51 45 11.0 19.0 0.00 0.00 0.00 66 1023.1
20260510085208 50 45 10.0 19.0 0.00 0.00 0.00 66 1023.0
20260510085008 50 45 10.0 19.0 0.00 0.00 0.00 65 1023.0
20260510084808 50 45 9.0 19.0 0.00 0.00 0.00 65 1023.1
20260510084608 50 45 9.0 17.0 0.00 0.00 0.00 65 1023.1
20260510084408 50 45 9.0 17.0 0.00 0.00 0.00 65 1023.1
20260510084208 50 45 9.0 14.0 0.00 0.00 0.00 67 1023.0
20260510084008 49 46 9.0 14.0 0.00 0.00 0.00 67 1023.0
20260510083808 49 45 9.0 15.0 0.00 0.00 0.00 66 1022.9
20260510083608 49 45 9.0 15.0 0.00 0.00 0.00 67 1023.0
20260510083208 48 46 8.0 15.0 0.00 0.00 0.00 67 1022.9
20260510083008 49 46 8.0 15.0 0.00 0.00 0.00 66 1023.0
20260510082808 49 46 8.0 14.0 0.00 0.00 0.00 69 1023.0
20260510082608 49 46 8.0 11.0 0.00 0.00 0.00 69 1023.0
20260509180807 55 46 10.0 18.0 0.00 0.00 0.00 52 1021.8
20260509180607 55 46 10.0 18.0 0.00 0.00 0.00 53 1021.7
20260509180407 55 45 10.0 18.0 0.00 0.00 0.00 53 1021.7
20260509180008 55 45 10.0 18.0 0.00 0.00 0.00 53 1021.6
20260509175608 55 45 10.0 18.0 0.00 0.00 0.00 52 1021.5
20260509175408 56 45 10.0 18.0 0.00 0.00 0.00 52 1021.7
20260509175208 56 45 10.0 18.0 0.00 0.00 0.00 52 1021.8
20260509175008 56 45 10.0 18.0 0.00 0.00 0.00 52 1021.6
20260509174808 56 45 10.0 18.0 0.00 0.00 0.00 53 1021.6
20260509174608 56 45 10.0 17.0 0.00 0.00 0.00 54 1021.6
20260509174207 56 46 10.0 17.0 0.00 0.00 0.00 52 1021.5
20260509174008 56 45 11.0 20.0 0.00 0.00 0.00 52 1021.6
20260509173808 56 45 11.0 20.0 0.00 0.00 0.00 51 1021.5
20260509173608 56 45 11.0 20.0 0.00 0.00 0.00 54 1021.4
20260509173407 56 45 11.0 20.0 0.00 0.00 0.00 54 1021.3
20260509173207 56 45 11.0 20.0 0.00 0.00 0.00 51 1021.6
20260509173008 56 45 11.0 19.0 0.00 0.00 0.00 53 1021.5
20260509172808 56 45 11.0 19.0 0.00 0.00 0.00 53 1021.5
20260509172608 56 45 10.0 19.0 0.00 0.00 0.00 50 1021.5
20260509172408 56 45 10.0 19.0 0.00 0.00 0.00 51 1021.3
20260509172208 57 46 10.0 17.0 0.00 0.00 0.00 51 1021.4
20260509172008 57 45 10.0 18.0 0.00 0.00 0.00 50 1021.3
20260509171608 57 46 10.0 18.0 0.00 0.00 0.00 50 1021.3
20260509171208 57 45 10.0 18.0 0.00 0.00 0.00 49 1021.2
20260509171008 57 46 10.0 16.0 0.00 0.00 0.00 50 1021.3
20260509170808 57 45 10.0 16.0 0.00 0.00 0.00 51 1021.2
20260509170408 57 45 11.0 17.0 0.00 0.00 0.00 50 1021.3
20260509170008 57 45 11.0 17.0 0.00 0.00 0.00 49 1021.2
20260509165808 57 46 11.0 17.0 0.00 0.00 0.00 49 1021.3
20260509165608 57 46 11.0 17.0 0.00 0.00 0.00 51 1021.2
20260509165408 57 45 12.0 18.0 0.00 0.00 0.00 50 1021.2
20260509165208 57 46 12.0 18.0 0.00 0.00 0.00 49 1021.3
20260509165008 57 46 12.0 18.0 0.00 0.00 0.00 50 1021.2
20260509164808 57 45 12.0 21.0 0.00 0.00 0.00 50 1021.3
20260509164607 57 45 12.0 21.0 0.00 0.00 0.00 49 1021.2
20260509164408 57 45 12.0 21.0 0.00 0.00 0.00 50 1021.1
20260509164208 57 46 12.0 21.0 0.00 0.00 0.00 50 1021.1
20260509164008 57 46 12.0 21.0 0.00 0.00 0.00 48 1021.1
20260509163808 57 45 12.0 20.0 0.00 0.00 0.00 49 1021.2
20260509163608 57 45 12.0 22.0 0.00 0.00 0.00 50 1021.0
20260509163408 57 46 11.0 22.0 0.00 0.00 0.00 50 1021.1
20260509163208 58 46 11.0 22.0 0.00 0.00 0.00 49 1021.1
20260509163008 58 45 11.0 22.0 0.00 0.00 0.00 50 1021.0
20260509162808 58 45 11.0 22.0 0.00 0.00 0.00 51 1021.0
20260509162408 58 46 11.0 18.0 0.00 0.00 0.00 49 1021.0
20260509162208 58 45 11.0 20.0 0.00 0.00 0.00 49 1021.1
20260509162008 58 45 11.0 20.0 0.00 0.00 0.00 49 1021.0
20260509161808 58 46 11.0 20.0 0.00 0.00 0.00 51 1021.1
20260509161608 58 45 12.0 20.0 0.00 0.00 0.00 50 1021.1
20260509161208 58 45 12.0 18.0 0.00 0.00 0.00 49 1021.0
20260509161007 58 45 13.0 20.0 0.00 0.00 0.00 50 1021.1
20260509160607 58 45 12.0 20.0 0.00 0.00 0.00 50 1021.1
20260509160408 58 46 12.0 20.0 0.00 0.00 0.00 50 1021.2
20260509160208 58 45 12.0 20.0 0.00 0.00 0.00 49 1021.1
20260509160008 58 45 11.0 21.0 0.00 0.00 0.00 49 1021.3
20260509155808 58 46 11.0 21.0 0.00 0.00 0.00 47 1021.4
20260509155608 59 46 11.0 21.0 0.00 0.00 0.00 50 1021.1
20260509155408 58 45 11.0 24.0 0.00 0.00 0.00 49 1021.2
20260509155008 58 45 11.0 24.0 0.00 0.00 0.00 50 1021.0
20260509154807 59 45 11.0 24.0 0.00 0.00 0.00 50 1021.0
20260509154608 59 45 11.0 24.0 0.00 0.00 0.00 53 1021.0
20260509154208 58 45 11.0 21.0 0.00 0.00 0.00 52 1021.2
20260509154008 58 45 11.0 21.0 0.00 0.00 0.00 53 1021.1
20260509153808 58 45 11.0 21.0 0.00 0.00 0.00 51 1021.1
20260509153607 58 46 11.0 18.0 0.00 0.00 0.00 51 1021.1
20260509153407 59 45 11.0 18.0 0.00 0.00 0.00 49 1021.1
20260509153208 59 45 12.0 19.0 0.00 0.00 0.00 51 1021.0
20260509153008 59 45 12.0 19.0 0.00 0.00 0.00 49 1021.0
20260509152808 59 45 12.0 19.0 0.00 0.00 0.00 53 1021.0
20260509152608 58 45 13.0 19.0 0.00 0.00 0.00 54 1021.0
20260509152408 58 45 13.0 19.0 0.00 0.00 0.00 50 1021.1
20260509152208 58 45 13.0 20.0 0.00 0.00 0.00 50 1021.1
20260509152007 58 46 13.0 20.0 0.00 0.00 0.00 50 1021.0
20260509151408 58 45 14.0 20.0 0.00 0.00 0.00 50 1021.1
20260509151208 58 46 14.0 20.0 0.00 0.00 0.00 51 1021.1
20260509150808 58 46 13.0 24.0 0.00 0.00 0.00 51 1021.1
20260509150608 58 46 12.0 24.0 0.00 0.00 0.00 50 1021.2
20260509150408 58 46 12.0 24.0 0.00 0.00 0.00 49 1021.2
20260509150007 58 46 11.0 24.0 0.00 0.00 0.00 50 1021.2
20260509145807 58 45 11.0 18.0 0.00 0.00 0.00 52 1020.9
20260509145607 58 45 11.0 18.0 0.00 0.00 0.00 50 1021.3
20260509145407 58 45 11.0 19.0 0.00 0.00 0.00 51 1021.5
20260509145008 58 45 12.0 19.0 0.00 0.00 0.00 51 1021.4
20260509144808 58 45 12.0 19.0 0.00 0.00 0.00 51 1021.4
20260509144408 58 45 12.0 22.0 0.00 0.00 0.00 53 1021.3
20260509144208 58 45 12.0 22.0 0.00 0.00 0.00 49 1021.3
20260509144008 58 45 12.0 22.0 0.00 0.00 0.00 49 1021.3
20260509143808 58 45 12.0 22.0 0.00 0.00 0.00 49 1021.3
20260509143608 58 46 12.0 22.0 0.00 0.00 0.00 50 1021.3
20260509143207 58 46 12.0 22.0 0.00 0.00 0.00 52 1021.3
20260509143007 58 45 12.0 22.0 0.00 0.00 0.00 51 1021.3
20260509142807 58 46 12.0 22.0 0.00 0.00 0.00 53 1021.2
20260509142607 58 45 12.0 22.0 0.00 0.00 0.00 50 1021.3
20260509142407 58 46 12.0 18.0 0.00 0.00 0.00 50 1021.3
20260509142207 58 45 13.0 18.0 0.00 0.00 0.00 52 1021.2
20260509142008 58 45 13.0 18.0 0.00 0.00 0.00 49 1021.3
20260509141808 58 45 14.0 22.0 0.00 0.00 0.00 54 1021.3
20260509141608 58 45 15.0 22.0 0.00 0.00 0.00 52 1021.2
20260509141408 58 46 15.0 22.0 0.00 0.00 0.00 51 1021.3
20260509141208 57 45 15.0 22.0 0.00 0.00 0.00 50 1021.2
20260509141008 57 45 14.0 22.0 0.00 0.00 0.00 50 1021.3
20260509140808 57 45 13.0 21.0 0.00 0.00 0.00 51 1021.3
20260509140608 57 45 12.0 21.0 0.00 0.00 0.00 50 1021.2
20260509140408 58 46 11.0 21.0 0.00 0.00 0.00 50 1021.3
20260509140208 58 46 11.0 21.0 0.00 0.00 0.00 50 1021.4
20260509140008 58 45 10.0 21.0 0.00 0.00 0.00 49 1021.4
20260509135408 59 45 11.0 18.0 0.00 0.00 0.00 56 1021.4
20260509135208 58 46 11.0 18.0 0.00 0.00 0.00 52 1021.5
20260509135008 58 45 11.0 18.0 0.00 0.00 0.00 51 1021.5
20260509134808 58 46 12.0 18.0 0.00 0.00 0.00 52 1021.4
20260509134608 58 46 12.0 18.0 0.00 0.00 0.00 53 1021.4
20260509134408 58 46 12.0 19.0 0.00 0.00 0.00 52 1021.4
20260509134208 58 45 12.0 20.0 0.00 0.00 0.00 52 1021.3
20260509133608 58 46 11.0 20.0 0.00 0.00 0.00 51 1021.4
20260509133408 58 46 10.0 22.0 0.00 0.00 0.00 50 1021.4
20260509133208 58 45 10.0 22.0 0.00 0.00 0.00 51 1021.4
20260509133008 58 45 10.0 22.0 0.00 0.00 0.00 52 1021.3
20260509132608 58 45 11.0 22.0 0.00 0.00 0.00 55 1021.2
20260509132407 58 45 12.0 17.0 0.00 0.00 0.00 55 1021.3
20260509132207 58 45 13.0 17.0 0.00 0.00 0.00 54 1021.3
20260509132007 58 45 13.0 17.0 0.00 0.00 0.00 52 1021.4
20260509131807 58 45 14.0 20.0 0.00 0.00 0.00 53 1021.4
20260509131607 58 45 14.0 20.0 0.00 0.00 0.00 55 1021.4
20260509131407 57 45 14.0 20.0 0.00 0.00 0.00 55 1021.4
20260509131007 57 45 13.0 22.0 0.00 0.00 0.00 53 1021.4
20260509130608 57 45 11.0 22.0 0.00 0.00 0.00 50 1021.5
20260509130408 57 45 11.0 22.0 0.00 0.00 0.00 51 1021.5
20260509130208 57 45 12.0 21.0 0.00 0.00 0.00 52 1021.4
20260509130007 57 45 12.0 22.0 0.00 0.00 0.00 55 1021.4
20260509125407 57 46 12.0 24.0 0.00 0.00 0.00 56 1021.4
20260509125208 57 46 11.0 24.0 0.00 0.00 0.00 53 1021.4
20260509125007 57 45 11.0 24.0 0.00 0.00 0.00 55 1021.4
20260509124808 57 45 11.0 24.0 0.00 0.00 0.00 56 1021.4
20260509124408 57 45 11.0 19.0 0.00 0.00 0.00 59 1021.4
20260509124207 57 45 12.0 19.0 0.00 0.00 0.00 56 1021.4
20260509124007 57 45 12.0 19.0 0.00 0.00 0.00 57 1021.4
20260509123810 57 45 12.0 19.0 0.00 0.00 0.00 58 1021.5
20260509123608 56 46 13.0 19.0 0.00 0.00 0.00 55 1021.6
20260509123208 56 45 13.0 22.0 0.00 0.00 0.00 56 1021.6
20260509123007 56 45 13.0 22.0 0.00 0.00 0.00 57 1021.7
20260509122807 56 45 13.0 22.0 0.00 0.00 0.00 54 1021.7
20260509122607 56 46 13.0 22.0 0.00 0.00 0.00 54 1021.6
20260509122407 56 45 12.0 22.0 0.00 0.00 0.00 53 1021.8
20260509122207 56 45 12.0 19.0 0.00 0.00 0.00 54 1021.6
20260509122008 56 45 12.0 23.0 0.00 0.00 0.00 54 1021.6
20260509121808 56 45 11.0 23.0 0.00 0.00 0.00 56 1021.6
20260509121408 56 45 11.0 23.0 0.00 0.00 0.00 57 1021.6
20260509121207 56 46 12.0 23.0 0.00 0.00 0.00 57 1021.6
20260509121007 56 46 12.0 20.0 0.00 0.00 0.00 60 1021.6
20260509120807 56 46 12.0 20.0 0.00 0.00 0.00 59 1021.7